User: anonymous   Login
Location: Boiro
(42.6475°N, 8.8834°W)
Time: 20:34:46
(UTC+01:00)
Language:

FALCONSAT 3 - Orbit

View from above orbital plane
View from above orbital plane
View from above satellite
View from above satellite

Ground track
Ground track

The orbit data is extracted from the following two-line orbital elements,

1 30776U 07006E   22021.38399310  .00012388  00000-0  26032-3 0  9997
2 30776  35.4330 136.4536 0002219 105.0521 255.0454 15.44525194826774
Epoch (UTC): 21 January 2022 09:12:57
Eccentricity: 0.0002219
inclination: 35.4330°
perigee height: 431 km
apogee height: 434 km
right ascension of ascending node: 136.4536°
argument of perigee: 105.0521°
revolutions per day: 15.44525194
mean anomaly at epoch: 255.0454°
orbit number at epoch: 82677

The dashed part of the orbit path shows where the satellite is in the earth's shadow,  

DLR